| time (UTC) | temp C | wind direction | speed KPH | gust KPH | rain 1hr cm | rain 24hr cm | rain mn cm | humidity % | barometer mb |
| 20260505065505 | 11 | 0 | 0.0 | 0.0 | 0.00 | 0.00 | 0.00 | 81 | 1010.3 |
| 20260505065005 | 12 | 159 | 0.0 | 1.6 | 0.00 | 0.00 | 0.00 | 81 | 1010.2 |
| 20260505063504 | 12 | 160 | 0.0 | 1.6 | 0.00 | 0.00 | 0.00 | 80 | 1010.3 |
| 20260505063005 | 12 | 160 | 0.0 | 3.2 | 0.00 | 0.00 | 0.00 | 79 | 1010.4 |
| 20260505062505 | 12 | 159 | 0.0 | 3.2 | 0.00 | 0.00 | 0.00 | 78 | 1010.4 |
| 20260505061504 | 13 | 160 | 0.0 | 1.6 | 0.00 | 0.00 | 0.00 | 76 | 1010.4 |
| 20260505061005 | 13 | 155 | 0.0 | 4.8 | 0.00 | 0.00 | 0.00 | 75 | 1010.3 |
| 20260505055505 | 15 | 192 | 3.2 | 6.4 | 0.00 | 0.00 | 0.00 | 71 | 1010.4 |
| 20260505055005 | 15 | 191 | 3.2 | 6.4 | 0.00 | 0.00 | 0.00 | 70 | 1010.3 |
| 20260505054505 | 15 | 190 | 3.2 | 11.3 | 0.00 | 0.00 | 0.00 | 70 | 1010.4 |
| 20260505054006 | 15 | 195 | 3.2 | 14.5 | 0.00 | 0.00 | 0.00 | 69 | 1010.5 |
| 20260505053504 | 15 | 198 | 3.2 | 14.5 | 0.00 | 0.00 | 0.00 | 70 | 1010.5 |
| 20260505053006 | 15 | 194 | 3.2 | 9.7 | 0.00 | 0.00 | 0.00 | 70 | 1010.5 |
| 20260505052004 | 15 | 196 | 3.2 | 11.3 | 0.00 | 0.00 | 0.00 | 71 | 1010.5 |
| 20260505051504 | 14 | 181 | 1.6 | 8.0 | 0.00 | 0.00 | 0.00 | 72 | 1010.5 |
| 20260505051004 | 14 | 183 | 3.2 | 11.3 | 0.00 | 0.00 | 0.00 | 72 | 1010.4 |
| 20260505050505 | 14 | 176 | 3.2 | 11.3 | 0.00 | 0.00 | 0.00 | 72 | 1010.4 |
| 20260505041505 | 15 | 187 | 3.2 | 12.9 | 0.00 | 0.00 | 0.00 | 69 | 1010.6 |
| 20260505041004 | 15 | 185 | 3.2 | 11.3 | 0.00 | 0.00 | 0.00 | 68 | 1010.5 |
| 20260505040504 | 15 | 188 | 4.8 | 14.5 | 0.00 | 0.00 | 0.00 | 68 | 1010.5 |
| 20260505040009 | 15 | 194 | 4.8 | 14.5 | 0.00 | 0.00 | 0.00 | 68 | 1010.6 |
| 20260505035506 | 15 | 191 | 4.8 | 11.3 | 0.00 | 0.00 | 0.00 | 67 | 1010.6 |
| 20260505035006 | 15 | 188 | 4.8 | 11.3 | 0.00 | 0.00 | 0.00 | 67 | 1010.6 |
| 20260505034504 | 15 | 189 | 3.2 | 11.3 | 0.00 | 0.00 | 0.00 | 68 | 1010.6 |
| 20260505033504 | 15 | 189 | 3.2 | 11.3 | 0.00 | 0.00 | 0.00 | 67 | 1010.6 |
| 20260505033004 | 15 | 189 | 3.2 | 11.3 | 0.00 | 0.00 | 0.00 | 67 | 1010.6 |
| 20260505032006 | 15 | 187 | 4.8 | 12.9 | 0.00 | 0.00 | 0.00 | 65 | 1010.6 |
| 20260505031506 | 15 | 182 | 4.8 | 12.9 | 0.00 | 0.00 | 0.00 | 65 | 1010.6 |
| 20260505031005 | 15 | 189 | 3.2 | 11.3 | 0.00 | 0.00 | 0.00 | 65 | 1010.7 |
| 20260505030504 | 15 | 192 | 3.2 | 11.3 | 0.00 | 0.00 | 0.00 | 64 | 1010.7 |
| 20260505030005 | 16 | 184 | 3.2 | 11.3 | 0.00 | 0.00 | 0.00 | 64 | 1010.8 |
| 20260505025505 | 16 | 189 | 4.8 | 12.9 | 0.00 | 0.00 | 0.00 | 63 | 1010.7 |
| 20260505024505 | 16 | 193 | 3.2 | 11.3 | 0.00 | 0.00 | 0.00 | 62 | 1010.7 |
| 20260505024005 | 16 | 196 | 4.8 | 11.3 | 0.00 | 0.00 | 0.00 | 62 | 1010.8 |
| 20260505023505 | 16 | 193 | 4.8 | 11.3 | 0.00 | 0.00 | 0.00 | 61 | 1010.7 |
| 20260505023005 | 16 | 187 | 4.8 | 12.9 | 0.00 | 0.00 | 0.00 | 61 | 1010.7 |
| 20260505022505 | 16 | 186 | 4.8 | 12.9 | 0.00 | 0.00 | 0.00 | 60 | 1010.8 |
| 20260505022005 | 16 | 187 | 3.2 | 11.3 | 0.00 | 0.00 | 0.00 | 60 | 1010.8 |
| 20260505021504 | 16 | 182 | 3.2 | 12.9 | 0.00 | 0.00 | 0.00 | 59 | 1010.9 |
| 20260505021005 | 16 | 179 | 4.8 | 12.9 | 0.00 | 0.00 | 0.00 | 58 | 1010.9 |
| 20260505020505 | 16 | 189 | 3.2 | 11.3 | 0.00 | 0.00 | 0.00 | 58 | 1010.9 |
| 20260505015505 | 16 | 190 | 3.2 | 11.3 | 0.00 | 0.00 | 0.00 | 57 | 1010.8 |
| 20260505015005 | 16 | 191 | 3.2 | 11.3 | 0.00 | 0.00 | 0.00 | 56 | 1010.8 |
| 20260505014505 | 17 | 188 | 3.2 | 12.9 | 0.00 | 0.00 | 0.00 | 54 | 1010.8 |
| 20260505014005 | 17 | 190 | 3.2 | 12.9 | 0.00 | 0.00 | 0.00 | 53 | 1010.8 |
| 20260505013506 | 17 | 177 | 4.8 | 16.1 | 0.00 | 0.00 | 0.00 | 52 | 1010.8 |
| 20260505013004 | 17 | 177 | 4.8 | 16.1 | 0.00 | 0.00 | 0.00 | 52 | 1010.7 |
| 20260505011505 | 17 | 200 | 3.2 | 9.7 | 0.00 | 0.00 | 0.00 | 50 | 1010.5 |
| 20260505011005 | 17 | 199 | 3.2 | 9.7 | 0.00 | 0.00 | 0.00 | 47 | 1010.5 |
| 20260505010505 | 17 | 194 | 3.2 | 11.3 | 0.00 | 0.00 | 0.00 | 48 | 1010.5 |
| 20260505010005 | 17 | 194 | 3.2 | 11.3 | 0.00 | 0.00 | 0.00 | 48 | 1010.3 |
| 20260505005005 | 17 | 194 | 1.6 | 4.8 | 0.00 | 0.00 | 0.00 | 50 | 1010.2 |
| 20260505004505 | 17 | 190 | 1.6 | 6.4 | 0.00 | 0.00 | 0.00 | 50 | 1010.2 |
| 20260505004005 | 17 | 188 | 1.6 | 9.7 | 0.00 | 0.00 | 0.00 | 48 | 1010.2 |
| 20260505003505 | 17 | 187 | 1.6 | 9.7 | 0.00 | 0.00 | 0.00 | 48 | 1010.1 |
| 20260505003006 | 18 | 184 | 1.6 | 6.4 | 0.00 | 0.00 | 0.00 | 46 | 1010.0 |
| 20260505002506 | 18 | 177 | 1.6 | 11.3 | 0.00 | 0.00 | 0.00 | 44 | 1009.9 |
| 20260505002005 | 19 | 186 | 3.2 | 11.3 | 0.00 | 0.00 | 0.00 | 43 | 1009.9 |
| 20260505001505 | 20 | 194 | 3.2 | 9.7 | 0.00 | 0.00 | 0.00 | 41 | 1009.9 |
| 20260505001005 | 19 | 193 | 3.2 | 11.3 | 0.00 | 0.00 | 0.00 | 42 | 1009.9 |
| 20260505000505 | 20 | 193 | 4.8 | 11.3 | 0.00 | 0.00 | 0.00 | 40 | 1009.8 |
| 20260505000005 | 20 | 196 | 4.8 | 11.3 | 0.00 | 0.00 | 0.00 | 39 | 1009.8 |
| 20260504235506 | 20 | 203 | 4.8 | 16.1 | 0.00 | 0.00 | 0.00 | 38 | 1009.8 |
| 20260504235005 | 20 | 196 | 8.0 | 17.7 | 0.00 | 0.00 | 0.00 | 38 | 1009.7 |
| 20260504234505 | 21 | 193 | 8.0 | 17.7 | 0.00 | 0.00 | 0.00 | 37 | 1009.7 |
| 20260504234005 | 21 | 198 | 4.8 | 16.1 | 0.00 | 0.00 | 0.00 | 38 | 1009.7 |
| 20260504233005 | 21 | 214 | 6.4 | 17.7 | 0.00 | 0.00 | 0.00 | 36 | 1009.6 |
| 20260504232505 | 21 | 212 | 4.8 | 16.1 | 0.00 | 0.00 | 0.00 | 36 | 1009.6 |
| 20260504232005 | 21 | 223 | 4.8 | 12.9 | 0.00 | 0.00 | 0.00 | 36 | 1009.5 |
| 20260504231504 | 21 | 235 | 6.4 | 16.1 | 0.00 | 0.00 | 0.00 | 35 | 1009.5 |
| 20260504231005 | 21 | 241 | 9.7 | 19.3 | 0.00 | 0.00 | 0.00 | 35 | 1009.5 |
| 20260504230505 | 21 | 244 | 8.0 | 19.3 | 0.00 | 0.00 | 0.00 | 35 | 1009.4 |
| 20260504230005 | 21 | 234 | 6.4 | 14.5 | 0.00 | 0.00 | 0.00 | 35 | 1009.5 |
| 20260504225506 | 21 | 227 | 8.0 | 17.7 | 0.00 | 0.00 | 0.00 | 34 | 1009.5 |
| 20260504225005 | 21 | 230 | 9.7 | 24.1 | 0.00 | 0.00 | 0.00 | 34 | 1009.6 |
| 20260504224505 | 21 | 235 | 9.7 | 24.1 | 0.00 | 0.00 | 0.00 | 34 | 1009.6 |
| 20260504223506 | 21 | 233 | 9.7 | 22.5 | 0.00 | 0.00 | 0.00 | 34 | 1009.5 |
| 20260504222005 | 22 | 239 | 9.7 | 30.6 | 0.00 | 0.00 | 0.00 | 33 | 1009.5 |
| 20260504221505 | 22 | 237 | 8.0 | 19.3 | 0.00 | 0.00 | 0.00 | 34 | 1009.5 |
| 20260504221008 | 22 | 236 | 8.0 | 20.9 | 0.00 | 0.00 | 0.00 | 34 | 1009.6 |
| 20260504220506 | 22 | 235 | 6.4 | 20.9 | 0.00 | 0.00 | 0.00 | 33 | 1009.6 |
| 20260504220005 | 22 | 253 | 6.4 | 17.7 | 0.00 | 0.00 | 0.00 | 35 | 1009.6 |
| 20260504215005 | 22 | 240 | 9.7 | 22.5 | 0.00 | 0.00 | 0.00 | 32 | 1009.7 |
| 20260504213505 | 22 | 247 | 9.7 | 20.9 | 0.00 | 0.00 | 0.00 | 33 | 1009.7 |
| 20260504213006 | 22 | 237 | 8.0 | 19.3 | 0.00 | 0.00 | 0.00 | 32 | 1009.7 |
| 20260504212506 | 22 | 225 | 9.7 | 20.9 | 0.00 | 0.00 | 0.00 | 33 | 1009.7 |
| 20260504212005 | 22 | 231 | 11.3 | 24.1 | 0.00 | 0.00 | 0.00 | 32 | 1009.7 |
| 20260504211505 | 22 | 237 | 11.3 | 24.1 | 0.00 | 0.00 | 0.00 | 31 | 1009.7 |
| 20260504211005 | 22 | 234 | 9.7 | 20.9 | 0.00 | 0.00 | 0.00 | 33 | 1009.6 |
| 20260504210505 | 22 | 236 | 11.3 | 25.7 | 0.00 | 0.00 | 0.00 | 32 | 1009.8 |
| 20260504205505 | 23 | 229 | 9.7 | 27.4 | 0.00 | 0.00 | 0.00 | 32 | 1009.7 |
| 20260504205006 | 23 | 244 | 9.7 | 27.4 | 0.00 | 0.00 | 0.00 | 32 | 1009.7 |
| 20260504204005 | 22 | 260 | 11.3 | 29.0 | 0.00 | 0.00 | 0.00 | 32 | 1009.9 |
| 20260504203005 | 23 | 240 | 9.7 | 22.5 | 0.00 | 0.00 | 0.00 | 32 | 1009.7 |
| 20260504202505 | 22 | 243 | 11.3 | 30.6 | 0.00 | 0.00 | 0.00 | 31 | 1009.8 |
| 20260504202006 | 23 | 238 | 11.3 | 30.6 | 0.00 | 0.00 | 0.00 | 30 | 1009.8 |
| 20260504201505 | 23 | 229 | 9.7 | 22.5 | 0.00 | 0.00 | 0.00 | 33 | 1009.8 |
| 20260504201005 | 23 | 234 | 9.7 | 29.0 | 0.00 | 0.00 | 0.00 | 31 | 1009.8 |
| 20260504200505 | 23 | 233 | 8.0 | 29.0 | 0.00 | 0.00 | 0.00 | 32 | 1009.8 |
| 20260504200005 | 23 | 233 | 8.0 | 20.9 | 0.00 | 0.00 | 0.00 | 33 | 1010.0 |
| 20260504195505 | 23 | 216 | 9.7 | 27.4 | 0.00 | 0.00 | 0.00 | 32 | 1009.9 |
| 20260504195006 | 23 | 214 | 11.3 | 27.4 | 0.00 | 0.00 | 0.00 | 31 | 1009.9 |
| 20260504194504 | 22 | 233 | 12.9 | 32.2 | 0.00 | 0.00 | 0.00 | 33 | 1010.0 |
| 20260504194006 | 22 | 233 | 11.3 | 32.2 | 0.00 | 0.00 | 0.00 | 33 | 1010.1 |
| 20260504193506 | 22 | 231 | 9.7 | 24.1 | 0.00 | 0.00 | 0.00 | 32 | 1010.1 |
| 20260504193005 | 22 | 229 | 9.7 | 24.1 | 0.00 | 0.00 | 0.00 | 32 | 1010.3 |
| 20260504192505 | 22 | 244 | 6.4 | 17.7 | 0.00 | 0.00 | 0.00 | 32 | 1010.4 |
| 20260504191505 | 22 | 224 | 9.7 | 22.5 | 0.00 | 0.00 | 0.00 | 31 | 1010.5 |
| 20260504191005 | 22 | 222 | 9.7 | 25.7 | 0.00 | 0.00 | 0.00 | 33 | 1010.7 |
| 20260504190505 | 22 | 222 | 9.7 | 25.7 | 0.00 | 0.00 | 0.00 | 33 | 1010.6 |
| 20260504190006 | 22 | 229 | 8.0 | 25.7 | 0.00 | 0.00 | 0.00 | 31 | 1010.7 |
| 20260504185505 | 22 | 255 | 6.4 | 19.3 | 0.00 | 0.00 | 0.00 | 32 | 1010.8 |
| 20260504185005 | 22 | 255 | 8.0 | 25.7 | 0.00 | 0.00 | 0.00 | 32 | 1010.9 |
| 20260504184506 | 22 | 249 | 9.7 | 30.6 | 0.00 | 0.00 | 0.00 | 33 | 1011.0 |
| 20260504184004 | 22 | 244 | 9.7 | 30.6 | 0.00 | 0.00 | 0.00 | 33 | 1011.1 |
| 20260504183505 | 22 | 233 | 12.9 | 29.0 | 0.00 | 0.00 | 0.00 | 33 | 1011.1 |
| 20260504182504 | 22 | 231 | 11.3 | 32.2 | 0.00 | 0.00 | 0.00 | 35 | 1011.3 |
| 20260504182005 | 22 | 244 | 9.7 | 32.2 | 0.00 | 0.00 | 0.00 | 33 | 1011.4 |
| 20260504181505 | 22 | 260 | 9.7 | 33.8 | 0.00 | 0.00 | 0.00 | 32 | 1011.4 |
| 20260504180505 | 22 | 218 | 8.0 | 27.4 | 0.00 | 0.00 | 0.00 | 33 | 1011.5 |
| 20260504180005 | 21 | 217 | 9.7 | 27.4 | 0.00 | 0.00 | 0.00 | 33 | 1011.5 |
| 20260504175505 | 21 | 232 | 11.3 | 30.6 | 0.00 | 0.00 | 0.00 | 32 | 1011.7 |
| 20260504175005 | 21 | 239 | 12.9 | 30.6 | 0.00 | 0.00 | 0.00 | 33 | 1011.8 |
| 20260504174505 | 21 | 242 | 11.3 | 29.0 | 0.00 | 0.00 | 0.00 | 34 | 1012.0 |
| 20260504174005 | 21 | 236 | 9.7 | 29.0 | 0.00 | 0.00 | 0.00 | 32 | 1011.9 |
| 20260504173505 | 21 | 240 | 11.3 | 35.4 | 0.00 | 0.00 | 0.00 | 32 | 1012.0 |
| 20260504173005 | 21 | 244 | 9.7 | 35.4 | 0.00 | 0.00 | 0.00 | 34 | 1012.0 |
| 20260504172506 | 21 | 238 | 9.7 | 33.8 | 0.00 | 0.00 | 0.00 | 37 | 1012.1 |
| 20260504172006 | 21 | 236 | 11.3 | 33.8 | 0.00 | 0.00 | 0.00 | 35 | 1012.1 |
| 20260504170505 | 20 | 225 | 12.9 | 27.4 | 0.00 | 0.00 | 0.00 | 35 | 1012.4 |
| 20260504151006 | 18 | 246 | 11.3 | 27.4 | 0.00 | 0.00 | 0.00 | 45 | 1013.5 |
| 20260504141005 | 17 | 230 | 8.0 | 17.7 | 0.00 | 0.00 | 0.00 | 51 | 1013.8 |
| 20260504140506 | 17 | 240 | 9.7 | 22.5 | 0.00 | 0.00 | 0.00 | 54 | 1013.7 |
| 20260504110505 | 10 | 225 | 6.4 | 16.1 | 0.00 | 0.00 | 0.00 | 73 | 1015.1 |
| 20260504100507 | 9 | 219 | 4.8 | 14.5 | 0.00 | 0.00 | 0.00 | 70 | 1015.1 |
| 20260504082005 | 7 | 218 | 1.6 | 6.4 | 0.00 | 0.00 | 0.00 | 66 | 1014.9 |
| 20260504081006 | 7 | 224 | 3.2 | 11.3 | 0.00 | 0.00 | 0.00 | 66 | 1014.9 |
| 20260504080505 | 7 | 233 | 3.2 | 9.7 | 0.00 | 0.00 | 0.00 | 65 | 1014.8 |